"2010-01-09 00:00:00",1575640,7.735,180.3,5.274,0.837,4.704,99.74779,-1.342,-0.033,8.89,0,109.5,13.58,-0.60,142.3
"2010-01-09 00:00:30",1575641,7.155,178.9,5.452,1.163,3.136,99.75005,-1.337,-0.101,8.82,0,109.5,13.58,-0.59,140.9
"2010-01-09 00:01:00",1575642,6.909,177,5.892,1.184,2.582,99.75768,-1.317,-0.252,8.65,0,109.5,13.58,-0.57,139.0
"2010-01-09 00:01:30",1575643,7.791,181.3,5.276,0.917,4.172,99.76135,-1.308,-0.112,8.77,0,109.5,13.58,-0.56,143.3
"2010-01-09 00:02:00",1575644,7.863,181.5,5.35,1.028,4.359,99.7639,-1.301,-0.05,8.83,0,109.5,13.59,-0.55,143.5
"2010-01-09 00:02:30",1575645,8.44,183.2,3.902,0.3,5.294,99.76701,-1.294,-0.045,8.8,0,109.5,13.59,-0.55,145.2
"2010-01-09 00:03:00",1575646,8.34,183.4,3.924,0.627,5.351,99.7687,-1.289,-0.043,8.79,0,109.5,13.59,-0.54,145.4
"2010-01-09 00:03:30",1575647,8.11,183.6,2.746,0.735,4.868,99.77039,-1.285,-0.019,8.8,0,109.5,13.59,-0.54,145.6
"2010-01-09 00:04:00",1575648,7.486,180,5.341,1.139,4.09,99.77576,-1.271,-0.054,8.81,0,109.5,13.58,-0.52,142.0
"2010-01-09 00:04:30",1575649,7.595,178.8,5.562,1.047,3.702,99.77746,-1.267,-0.155,8.72,0,109.5,13.58,-0.52,140.8
"2010-01-09 00:05:00",1575650,7.829,179.7,5.454,0.926,4.163,99.78312,-1.252,-0.122,8.75,0,109.5,13.58,-0.50,141.7
"2010-01-09 00:05:30",1575651,7.765,180.3,5.496,1.044,4.098,99.78539,-1.247,-0.058,8.78,0,109.5,13.58,-0.50,142.3
"2010-01-09 00:06:00",1575652,7.702,180,5.553,1.054,4.071,99.7868,-1.243,-0.068,8.83,0,109.5,13.58,-0.50,142.0
"2010-01-09 00:06:30",1575653,8.22,182,3.67,0.363,5.247,99.78793,-1.24,-0.026,8.86,0,109.5,13.58,-0.49,144.0
"2010-01-09 00:07:00",1575654,7.484,179,5.366,1.082,4.245,99.78963,-1.236,-0.13,8.75,0,109.5,13.58,-0.49,141.0
"2010-01-09 00:07:30",1575655,7.107,178,5.981,1.169,3.87,99.7916,-1.231,-0.091,8.86,0,109.5,13.58,-0.48,140.0
"2010-01-09 00:08:00",1575656,7.987,183.4,1.838,0.721,5.26,99.79245,-1.229,-0.01,8.97,0,109.5,13.58,-0.48,145.4
"2010-01-09 00:08:30",1575657,7.933,183.1,2.81,0.835,5.121,99.7933,-1.226,-0.005,8.97,0,109.5,13.59,-0.48,145.1
"2010-01-09 00:09:00",1575658,8.05,183,3.426,0.743,4.96,99.795,-1.222,0.027,8.97,0,109.5,13.59,-0.47,145.0
"2010-01-09 00:09:30",1575659,8.03,182.9,2.998,0.812,4.708,99.79585,-1.22,0.021,8.98,0,109.5,13.59,-0.47,144.9
"2010-01-09 00:10:00",1575660,8.1,182.7,2.581,0.624,4.731,99.79613,-1.219,0.024,9,0,109.5,13.59,-0.47,144.7
"2010-01-09 00:10:30",1575661,8.01,181.9,3.23,0.742,4.589,99.79726,-1.216,0.042,9,0,109.5,13.59,-0.47,143.9
"2010-01-09 00:11:00",1575662,8.05,181.8,3.289,0.735,4.452,99.80518,-1.196,0.047,9.01,0,109.5,13.59,-0.45,143.8
"2010-01-09 00:11:30",1575663,8.14,181,3.202,0.724,4.409,99.81283,-1.177,0.053,9.01,0,109.5,13.59,-0.43,143.0
"2010-01-09 00:12:00",1575664,8.21,180.8,3.239,0.642,4.537,99.82161,-1.154,0.063,8.98,0,109.5,13.59,-0.41,142.8
"2010-01-09 00:12:30",1575665,8.34,179.5,3.825,0.618,4.474,99.82869,-1.136,0.066,8.95,0,109.5,13.59,-0.39,141.5
"2010-01-09 00:13:00",1575666,8.55,180.3,3.052,0.305,4.434,99.8301,-1.133,0.03,8.85,0,109.5,13.59,-0.38,142.3
"2010-01-09 00:13:30",1575667,7.565,175,6.049,1.181,2.454,99.8301,-1.133,-0.113,8.72,0,109.5,13.59,-0.38,137.0
"2010-01-09 00:14:00",1575668,7.526,174.9,6.07,1.194,3.015,99.8301,-1.133,0.001,8.82,0,109.5,13.59,-0.38,136.9
"2010-01-09 00:15:30",1575669,8.6,179.6,2.498,0.643,5.399,99.8301,-1.133,0.09,8.85,0,109.5,13.59,-0.38,141.6
"2010-01-09 00:16:00",1575670,8.44,178.6,3.167,0.733,5.268,99.8301,-1.133,0.104,8.86,0,109.5,13.59,-0.38,140.6
"2010-01-09 00:16:30",1575671,8.4,177.8,3.865,0.549,5.174,99.8301,-1.133,0.113,8.88,0,109.5,13.59,-0.38,139.8
"2010-01-09 00:17:00",1575672,8.25,178.2,2.938,0.745,4.916,99.8301,-1.133,0.116,8.93,0,109.5,13.6,-0.38,140.2
"2010-01-09 00:17:30",1575673,8.18,177.9,3.44,0.731,4.717,99.8301,-1.133,0.132,8.99,0,109.5,13.6,-0.38,139.9
"2010-01-09 00:18:00",1575674,8.27,177.3,3.833,0.623,4.366,99.8301,-1.133,0.049,8.96,0,109.5,13.6,-0.38,139.3
"2010-01-09 00:18:30",1575675,7.899,175.6,5.085,0.936,4.121,99.8301,-1.133,0.062,8.96,0,109.5,13.6,-0.38,137.6
"2010-01-09 00:19:00",1575676,7.524,172.6,5.987,1.142,2.944,99.8301,-1.133,-0.012,8.92,0,109.5,13.6,-0.38,134.6
"2010-01-09 00:19:30",1575677,7.897,175.7,5.282,1.011,4.527,99.8301,-1.133,0.082,8.98,0,109.5,13.6,-0.38,137.7
"2010-01-09 00:20:00",1575678,8.32,177.1,4.79,0.821,4.821,99.8301,-1.133,0.114,9,0,109.5,13.6,-0.38,139.1
"2010-01-09 00:20:30",1575679,8.23,177.1,4.648,0.896,4.796,99.8301,-1.133,0.115,9,0,109.5,13.6,-0.38,139.1
"2010-01-09 00:21:00",1575680,8.41,178.3,4.139,0.616,5.489,99.83095,-1.131,0.133,8.97,0,109.4,13.6,-0.38,140.3
"2010-01-09 00:21:30",1575681,8.32,178.9,2.648,0.618,5.199,99.8318,-1.128,0.129,8.96,0,109.5,13.6,-0.38,140.9
"2010-01-09 00:22:00",1575682,8.23,179,3.269,0.662,5.173,99.8318,-1.128,0.134,8.97,0,109.5,13.6,-0.38,141.0
"2010-01-09 00:22:30",1575683,8.22,180,3.421,0.734,4.896,99.83406,-1.123,0.149,8.95,0,109.5,13.6,-0.37,142.0
"2010-01-09 00:23:00",1575684,8.23,180.3,3.75,0.578,4.798,99.83547,-1.119,0.122,8.91,0,109.5,13.6,-0.37,142.3
"2010-01-09 00:23:30",1575685,8.14,180.7,2.74,0.744,4.473,99.83943,-1.109,0.124,8.91,0,109.4,13.6,-0.36,142.7
"2010-01-09 00:24:00",1575686,8.17,180.7,2.557,0.64,4.504,99.84311,-1.1,0.136,8.91,0,109.4,13.6,-0.35,142.7
"2010-01-09 00:24:30",1575687,7.953,180,4.224,0.953,4.226,99.84226,-1.102,0.157,8.94,0,109.4,13.6,-0.35,142.0
"2010-01-09 00:25:00",1575688,7.418,175.6,5.838,1.194,2.526,99.84169,-1.103,-0.054,8.75,0,109.4,13.6,-0.36,137.6
"2010-01-09 00:25:30",1575689,6.662,171.6,4.92,0.945,1.537,99.84311,-1.1,0.031,8.87,0,109.5,13.6,-0.35,133.6
"2010-01-09 00:26:00",1575690,7.879,177.8,5.258,1.066,4.12,99.84509,-1.094,0.065,8.93,0,109.4,13.6,-0.35,139.8
"2010-01-09 00:26:30",1575691,8.23,180.3,2.648,0.734,5.244,99.84281,-1.1,0.149,9.03,0,109.4,13.61,-0.35,142.3
"2010-01-09 00:27:00",1575692,8.2,178.8,3.78,0.758,5.34,99.8448,-1.095,0.153,9.07,0,109.5,13.61,-0.35,140.8
"2010-01-09 00:27:30",1575693,8.24,179.2,3.276,0.724,5.266,99.83715,-1.115,0.155,9.1,0,109.4,13.6,-0.37,141.2
"2010-01-09 00:28:00",1575694,8.35,179.4,3.861,0.511,5.1,99.8363,-1.117,0.151,9.09,0,109.4,13.6,-0.37,141.4
"2010-01-09 00:28:30",1575695,8.24,179.1,3.056,0.645,4.916,99.83262,-1.126,0.138,9.12,0,109.4,13.6,-0.38,141.1
"2010-01-09 00:29:00",1575696,8.22,179.2,3.372,0.738,4.709,99.8346,-1.121,0.143,9.13,0,109.4,13.6,-0.37,141.2
"2010-01-09 00:29:30",1575697,8.39,180.1,3.27,0.508,4.527,99.83233,-1.127,0.145,9.08,0,109.4,13.6,-0.38,142.1
"2010-01-09 00:30:00",1575698,8.26,180.1,3.201,0.747,4.476,99.83517,-1.12,0.141,9.04,0,109.5,13.6,-0.37,142.1
"2010-01-09 00:30:30",1575699,8.36,180,3.385,0.733,4.336,99.82922,-1.135,0.141,9.04,0,109.4,13.6,-0.39,142.0
"2010-01-09 00:31:00",1575700,8.33,179.9,3.336,0.675,4.197,99.82864,-1.136,0.13,9.01,0,109.4,13.6,-0.39,141.9
"2010-01-09 00:31:30",1575701,8.31,179.9,3.369,0.576,4.278,99.82524,-1.145,0.138,9.02,0,109.4,13.6,-0.40,141.9
"2010-01-09 00:32:00",1575702,8.31,180.1,3.185,0.516,4.219,99.82298,-1.151,0.153,9.01,0,109.4,13.6,-0.40,142.1
"2010-01-09 00:32:30",1575703,8.23,179.6,3.753,0.509,4.314,99.82213,-1.153,0.128,9.04,0,109.4,13.6,-0.41,141.6
"2010-01-09 00:33:00",1575704,8.13,179.5,3.708,0.618,4.324,99.82269,-1.152,0.119,9.06,0,109.4,13.6,-0.40,141.5
"2010-01-09 00:33:30",1575705,7.446,175.3,5.798,1.113,2.978,99.82213,-1.153,0.025,8.98,0,109.4,13.6,-0.41,137.3
"2010-01-09 00:34:00",1575706,7.541,175.9,5.842,1.088,3.15,99.82185,-1.154,0.002,8.99,0,109.4,13.61,-0.41,137.9
"2010-01-09 00:34:30",1575707,6.72,171.3,5.896,1.159,2.215,99.82354,-1.149,-0.017,8.99,0,109.4,13.61,-0.40,133.3
"2010-01-09 00:35:00",1575708,7.655,176.6,4.929,1.015,4.296,99.82298,-1.151,0.066,9.13,0,109.4,13.61,-0.40,138.6
"2010-01-09 00:35:30",1575709,7.95,176.9,4.54,0.81,4.819,99.82298,-1.151,0.103,9.18,0,109.4,13.62,-0.40,138.9
"2010-01-09 00:36:00",1575710,7.724,176.1,4.667,0.961,5,99.82495,-1.146,0.068,9.21,0,109.4,13.62,-0.40,138.1
"2010-01-09 00:36:30",1575711,8.05,176.9,3.921,0.659,5.261,99.8241,-1.148,0.121,9.3,0,109.4,13.62,-0.40,138.9
"2010-01-09 00:37:00",1575712,8.07,178,3.203,0.622,5.251,99.82665,-1.141,0.12,9.3,0,109.4,13.62,-0.39,140.0
"2010-01-09 00:37:30",1575713,8.06,178.5,2.663,0.716,5.004,99.82637,-1.142,0.113,9.34,0,109.4,13.62,-0.39,140.5
"2010-01-09 00:38:00",1575714,8.06,178.8,3.317,0.638,4.686,99.82778,-1.139,0.116,9.33,0,109.5,13.62,-0.39,140.8
"2010-01-09 00:38:30",1575715,8.03,178.7,3.417,0.744,4.517,99.82806,-1.138,0.109,9.33,0,109.4,13.62,-0.39,140.7
"2010-01-09 00:39:00",1575716,8.13,177.8,3.698,0.546,4.387,99.82381,-1.149,0.086,9.32,0,109.4,13.62,-0.40,139.8
"2010-01-09 00:39:30",1575717,8.08,177.9,3.185,0.63,4.346,99.81985,-1.159,0.101,9.35,0,109.4,13.62,-0.41,139.9
"2010-01-09 00:40:00",1575718,8.1,177.9,3.156,0.467,4.09,99.81361,-1.175,0.089,9.37,0,109.4,13.62,-0.43,139.9
"2010-01-09 00:40:30",1575719,7.974,177.5,3.369,0.654,3.988,99.80625,-1.193,0.093,9.43,0,109.4,13.61,-0.45,139.5
"2010-01-09 00:41:00",1575720,7.64,175,5.574,0.999,3.406,99.80172,-1.205,0.048,9.41,0,109.4,13.62,-0.46,137.0
"2010-01-09 00:41:30",1575721,7.518,174,5.987,1.139,3.006,99.79917,-1.212,-0.059,9.28,0,109.4,13.62,-0.46,136.0
"2010-01-09 00:42:00",1575722,6.903,171.9,5.954,1.175,2.285,99.79775,-1.215,-0.016,9.33,0,109.4,13.62,-0.47,133.9
"2010-01-09 00:42:30",1575723,7.884,177.5,4.743,0.965,4.088,99.79691,-1.217,0.026,9.32,0,109.4,13.62,-0.47,139.5
"2010-01-09 00:43:00",1575724,8.23,178.9,3.324,0.627,4.954,99.79605,-1.219,0.078,9.37,0,109.4,13.62,-0.47,140.9
"2010-01-09 00:43:30",1575725,8.2,178.6,3.807,0.626,5.177,99.79605,-1.219,0.095,9.36,0,109.4,13.62,-0.47,140.6
"2010-01-09 00:44:00",1575726,8.27,179,3.225,0.623,5.149,99.79605,-1.219,0.09,9.36,0,109.4,13.62,-0.47,141.0
"2010-01-09 00:44:30",1575727,8.43,179.9,3.705,0.562,5.129,99.79605,-1.219,0.065,9.36,0,109.4,13.61,-0.47,141.9
"2010-01-09 00:45:00",1575728,7.963,179.1,5.234,1.057,4.011,99.79605,-1.219,0.085,9.31,0,109.4,13.61,-0.47,141.1
"2010-01-09 00:45:30",1575729,8.34,181.2,2.81,0.733,4.42,99.79605,-1.219,0.073,9.31,0,109.4,13.61,-0.47,143.2
"2010-01-09 00:46:00",1575730,7.809,178.4,5.442,1.066,3.602,99.79605,-1.219,-0.084,9.19,0,109.4,13.61,-0.47,140.4
"2010-01-09 00:46:30",1575731,7.835,178.6,5.44,1.006,3.962,99.79549,-1.221,-0.01,9.31,0,109.4,13.61,-0.47,140.6
"2010-01-09 00:47:00",1575732,7.681,177.6,5.767,1.05,3.999,99.78869,-1.238,-0.008,9.33,0,109.4,13.62,-0.49,139.6
"2010-01-09 00:47:30",1575733,8.19,182.1,2.629,0.726,5.05,99.78048,-1.259,0.059,9.39,0,109.4,13.61,-0.51,144.1
"2010-01-09 00:48:00",1575734,8.11,181.3,4.068,0.822,5.153,99.77396,-1.276,0.037,9.39,0,109.4,13.62,-0.53,143.3
"2010-01-09 00:48:30",1575735,8.09,182.8,2.813,0.73,5.041,99.76942,-1.287,0.025,9.39,0,109.4,13.62,-0.54,144.8
"2010-01-09 00:49:00",1575736,7.544,180.1,5.267,1.117,3.816,99.76348,-1.302,-0.018,9.33,0,109.4,13.62,-0.56,142.1
"2010-01-09 00:49:30",1575737,7.985,182.5,3.792,0.653,4.927,99.76234,-1.305,-0.023,9.4,0,109.4,13.62,-0.56,144.5
"2010-01-09 00:50:00",1575738,7.461,180.1,5.639,1.044,3.705,99.76207,-1.306,-0.026,9.41,0,109.4,13.62,-0.56,142.1
"2010-01-09 00:50:30",1575739,7.538,181.1,5.253,1.028,4.014,99.76207,-1.306,-0.112,9.36,0,109.4,13.62,-0.56,143.1
"2010-01-09 00:51:00",1575740,7.228,178.8,6.042,1.138,3.539,99.76207,-1.306,-0.001,9.49,0,109.4,13.62,-0.56,140.8
"2010-01-09 00:51:30",1575741,7.535,181,5.497,1.049,4.3,99.76207,-1.306,-0.068,9.45,0,109.4,13.62,-0.56,143.0
"2010-01-09 00:52:00",1575742,7.626,181,5.277,0.99,4.224,99.76207,-1.306,-0.119,9.38,0,109.4,13.63,-0.56,143.0
"2010-01-09 00:52:30",1575743,7.857,181.1,3.721,0.83,4.767,99.76207,-1.306,-0.014,9.53,0,109.4,13.63,-0.56,143.1
"2010-01-09 00:53:00",1575744,8.02,180.9,2.49,0.624,5.064,99.76207,-1.306,-0.003,9.58,0,109.4,13.63,-0.56,142.9
"2010-01-09 00:53:30",1575745,7.955,180.2,3.383,0.619,5.021,99.76207,-1.306,-0.009,9.62,0,109.4,13.63,-0.56,142.2
"2010-01-09 00:54:00",1575746,7.845,180.4,2.907,0.739,4.694,99.76207,-1.306,0.012,9.63,0,109.4,13.63,-0.56,142.4
"2010-01-09 00:54:30",1575747,7.971,179.4,3.244,0.649,4.37,99.76207,-1.306,-0.025,9.6,0,109.4,13.63,-0.56,141.4
"2010-01-09 00:55:00",1575748,8.02,178.5,3.343,0.545,4.172,99.76207,-1.306,-0.018,9.66,0,109.4,13.62,-0.56,140.5
"2010-01-09 00:55:30",1575749,7.923,177.1,3.538,0.729,3.944,99.76207,-1.306,-0.026,9.69,0,109.4,13.62,-0.56,139.1
"2010-01-09 00:56:00",1575750,8.11,176.4,3.861,0.32,4.057,99.76207,-1.306,-0.022,9.74,0,109.4,13.62,-0.56,138.4
"2010-01-09 00:56:30",1575751,8.01,176.3,3.182,0.617,3.755,99.76009,-1.311,-0.037,9.81,0,109.4,13.62,-0.56,138.3
"2010-01-09 00:57:00",1575752,7.965,175.5,3.241,0.648,3.87,99.75017,-1.336,-0.035,9.86,0,109.4,13.62,-0.59,137.5
"2010-01-09 00:57:30",1575753,7.431,172,5.489,1.069,2.66,99.7479,-1.342,-0.103,9.9,0,109.4,13.62,-0.59,134.0
"2010-01-09 00:58:00",1575754,7.193,169.2,5.892,1.154,2.141,99.74337,-1.354,-0.177,9.95,0,109.4,13.63,-0.61,131.2
"2010-01-09 00:58:30",1575755,7.088,168,6.301,1.192,1.898,99.73685,-1.37,-0.282,9.89,0,109.4,13.63,-0.62,130.0
"2010-01-09 00:59:00",1575756,7.729,171.7,4.864,0.926,4.028,99.73147,-1.384,-0.103,10.16,0,109.4,13.63,-0.64,133.7
"2010-01-09 00:59:30",1575757,8.07,173.9,3.288,0.681,4.778,99.72836,-1.392,-0.057,10.26,0,109.4,13.63,-0.64,135.9
"2010-01-09 01:00:00",1575758,8.02,174.5,3.253,0.756,5.011,99.72807,-1.393,-0.048,10.27,0,109.4,13.63,-0.65,136.5
"2010-01-09 01:00:30",1575759,8.22,175.5,4.248,0.519,4.711,99.72807,-1.393,-0.093,10.26,0,109.4,13.62,-0.65,137.5
"2010-01-09 01:01:00",1575760,7.868,176.9,4.663,0.922,4.304,99.72807,-1.393,-0.116,10.24,0,109.4,13.62,-0.65,138.9
"2010-01-09 01:01:30",1575761,7.989,178.1,3.804,0.765,4.341,99.72807,-1.393,-0.084,10.26,0,109.4,13.62,-0.65,140.1
"2010-01-09 01:02:00",1575762,8.06,178.8,3.148,0.648,4.881,99.72807,-1.393,-0.075,10.29,0,109.4,13.62,-0.65,140.8
"2010-01-09 01:02:30",1575763,8.1,178.1,3.827,0.663,4.537,99.72778,-1.393,-0.091,10.26,0,109.4,13.62,-0.65,140.1
"2010-01-09 01:03:00",1575764,8.08,178.3,3.366,0.656,4.354,99.72665,-1.396,-0.108,10.28,0,109.4,13.62,-0.65,140.3
"2010-01-09 01:03:30",1575765,8.17,176.8,3.189,0.622,4.42,99.72043,-1.412,-0.108,10.29,0,109.4,13.62,-0.67,138.8
"2010-01-09 01:04:00",1575766,8.21,175.7,3.393,0.625,4.003,99.7108,-1.437,-0.11,10.29,0,109.4,13.62,-0.69,137.7
"2010-01-09 01:04:30",1575767,8.26,175.5,3.933,0.478,4.139,99.7057,-1.45,-0.088,10.31,0,109.4,13.62,-0.70,137.5
"2010-01-09 01:05:00",1575768,8.13,174.3,4.235,0.608,3.914,99.70229,-1.458,-0.109,10.34,0,109.4,13.62,-0.71,136.3
"2010-01-09 01:05:30",1575769,7.85,174,3.971,0.725,3.472,99.69776,-1.47,-0.167,10.31,0,109.4,13.63,-0.72,136.0
"2010-01-09 01:06:00",1575770,6.468,168.6,5.675,1.019,1.415,99.69606,-1.474,-0.24,10.31,0,109.4,13.63,-0.73,130.6
"2010-01-09 01:06:30",1575771,7.386,172.4,6.069,1.148,2.407,99.69493,-1.477,-0.344,10.19,0,109.4,13.63,-0.73,134.4
"2010-01-09 01:07:00",1575772,8.1,177.2,4.125,0.651,4.703,99.69549,-1.476,-0.158,10.38,0,109.4,13.63,-0.73,139.2
"2010-01-09 01:07:30",1575773,8.15,178.1,2.489,0.757,4.853,99.69521,-1.477,-0.141,10.39,0,109.4,13.63,-0.73,140.1
"2010-01-09 01:08:00",1575774,8.24,176.6,3.884,0.608,5.034,99.69633,-1.474,-0.139,10.36,0,109.4,13.63,-0.73,138.6
"2010-01-09 01:08:30",1575775,8.17,177.2,3.155,0.619,5.046,99.69549,-1.476,-0.134,10.34,0,109.4,13.63,-0.73,139.2
"2010-01-09 01:09:00",1575776,8.12,175.8,3.317,0.641,4.793,99.69578,-1.475,-0.136,10.35,0,109.4,13.63,-0.73,137.8
"2010-01-09 01:09:30",1575777,7.709,173.6,5.21,0.934,3.813,99.69691,-1.472,-0.205,10.29,0,109.4,13.63,-0.73,135.6
"2010-01-09 01:10:00",1575778,7.206,170.8,5.872,1.065,3.289,99.69662,-1.473,-0.187,10.4,0,109.4,13.63,-0.73,132.8
"2010-01-09 01:10:30",1575779,7.254,169.8,5.648,1.078,3.021,99.69917,-1.466,-0.322,10.31,0,109.4,13.63,-0.72,131.8
"2010-01-09 01:11:00",1575780,7.146,168.7,5.865,1.123,2.845,99.6986,-1.468,-0.212,10.46,0,109.4,13.63,-0.72,130.7
"2010-01-09 01:11:30",1575781,7.816,170.9,5.114,0.851,4.433,99.6986,-1.468,-0.171,10.55,0,109.4,13.63,-0.72,132.9
"2010-01-09 01:12:00",1575782,7.845,170.1,5.355,0.833,4.62,99.70029,-1.464,-0.17,10.54,0,109.4,13.64,-0.72,132.1
"2010-01-09 01:12:30",1575783,8.03,171.5,4.73,0.75,4.851,99.70002,-1.464,-0.168,10.56,0,109.4,13.64,-0.72,133.5
"2010-01-09 01:13:00",1575784,7.922,172.6,2.643,0.824,4.722,99.70002,-1.464,-0.171,10.58,0,109.4,13.64,-0.72,134.6
"2010-01-09 01:13:30",1575785,7.993,171.9,4.206,0.587,4.79,99.69917,-1.466,-0.136,10.61,0,109.4,13.64,-0.72,133.9
"2010-01-09 01:14:00",1575786,8.1,173,3.387,0.619,4.387,99.702,-1.459,-0.15,10.62,0,109.4,13.64,-0.71,135.0
"2010-01-09 01:14:30",1575787,8.21,173.4,3.785,0.462,4.303,99.70171,-1.46,-0.174,10.63,0,109.4,13.64,-0.71,135.4
"2010-01-09 01:15:00",1575788,7.94,172.8,4.814,0.866,3.974,99.70086,-1.462,-0.168,10.62,0,109.4,13.63,-0.72,134.8
"2010-01-09 01:15:30",1575789,7.889,172.5,5.458,1.048,3.518,99.70171,-1.46,-0.252,10.49,0,109.4,13.63,-0.71,134.5
"2010-01-09 01:16:00",1575790,7.526,170.2,5.89,1.134,2.499,99.7034,-1.456,-0.315,10.39,0,109.4,13.63,-0.71,132.2
"2010-01-09 01:16:30",1575791,8.07,173,5.251,0.932,3.809,99.70171,-1.46,-0.222,10.44,0,109.4,13.63,-0.71,135.0
"2010-01-09 01:17:00",1575792,8.43,175.3,3.901,0.507,5.072,99.70397,-1.454,-0.18,10.48,0,109.4,13.63,-0.71,137.3
"2010-01-09 01:17:30",1575793,8.25,175.2,3.882,0.656,5.156,99.70227,-1.459,-0.148,10.55,0,109.4,13.63,-0.71,137.2
"2010-01-09 01:18:00",1575794,8.27,175.9,3.183,0.662,4.918,99.70425,-1.453,-0.164,10.58,0,109.4,13.63,-0.71,137.9
"2010-01-09 01:18:30",1575795,8.22,176,3.157,0.822,4.98,99.7034,-1.456,-0.165,10.55,0,109.4,13.63,-0.71,138.0
"2010-01-09 01:19:00",1575796,8.35,175.8,3.613,0.222,4.621,99.70567,-1.45,-0.156,10.53,0,109.4,13.63,-0.70,137.8
"2010-01-09 01:19:30",1575797,8.14,176.3,2.438,0.652,4.434,99.70482,-1.452,-0.15,10.61,0,109.4,13.63,-0.71,138.3
"2010-01-09 01:20:00",1575798,8.15,175.7,3.765,0.66,4.482,99.70622,-1.448,-0.157,10.59,0,109.4,13.63,-0.70,137.7
"2010-01-09 01:20:30",1575799,8.22,175.4,3.749,0.614,4.127,99.70679,-1.447,-0.165,10.53,0,109.4,13.63,-0.70,137.4
"2010-01-09 01:21:00",1575800,8.07,175.7,3.508,0.75,4.03,99.70425,-1.453,-0.16,10.52,0,109.4,13.63,-0.71,137.7
"2010-01-09 01:21:30",1575801,8.03,176.9,2.598,0.754,4.024,99.70961,-1.44,-0.15,10.54,0,109.4,13.63,-0.69,138.9
"2010-01-09 01:22:00",1575802,8.06,176.3,3.727,0.623,3.897,99.70707,-1.446,-0.149,10.54,0,109.4,13.63,-0.70,138.3
"2010-01-09 01:22:30",1575803,7.608,174.2,5.483,1.086,2.984,99.70764,-1.445,-0.225,10.46,0,109.4,13.63,-0.70,136.2
"2010-01-09 01:23:00",1575804,7.734,175.3,5.543,1.086,3.217,99.70736,-1.446,-0.217,10.39,0,109.4,13.64,-0.70,137.3
"2010-01-09 01:23:30",1575805,7.464,173.4,5.027,1.086,2.446,99.70905,-1.441,-0.313,10.24,0,109.4,13.64,-0.69,135.4
"2010-01-09 01:24:00",1575806,8.21,177.5,4.221,0.675,4.215,99.70849,-1.443,-0.187,10.31,0,109.4,13.64,-0.70,139.5
"2010-01-09 01:24:30",1575807,8.26,176.9,4.512,0.766,4.673,99.70792,-1.444,-0.15,10.4,0,109.4,13.64,-0.70,138.9
"2010-01-09 01:25:00",1575808,8.3,177.5,3.206,0.646,4.912,99.71159,-1.435,-0.157,10.42,0,109.4,13.64,-0.69,139.5
"2010-01-09 01:25:30",1575809,8.16,177.4,3.789,0.826,4.657,99.71329,-1.43,-0.168,10.5,0,109.4,13.64,-0.68,139.4
"2010-01-09 01:26:00",1575810,8.08,175.5,4.654,0.906,4.674,99.71329,-1.43,-0.168,10.52,0,109.4,13.64,-0.68,137.5
"2010-01-09 01:26:30",1575811,8.1,175.6,4.58,0.831,4.398,99.7167,-1.422,-0.181,10.52,0,109.4,13.64,-0.67,137.6
"2010-01-09 01:27:00",1575812,8.22,176,2.881,0.795,4.913,99.72208,-1.408,-0.13,10.51,0,109.4,13.64,-0.66,138.0
"2010-01-09 01:27:30",1575813,8.53,176.5,3.126,0.467,4.529,99.73454,-1.376,-0.136,10.48,0,109.4,13.64,-0.63,138.5
"2010-01-09 01:28:00",1575814,8.28,176.6,3.3,0.814,4.469,99.73879,-1.365,-0.121,10.41,0,109.4,13.64,-0.62,138.6
"2010-01-09 01:28:30",1575815,8.42,176.5,3.697,0.649,4.362,99.7422,-1.357,-0.114,10.34,0,109.4,13.64,-0.61,138.5
"2010-01-09 01:29:00",1575816,8.47,176.5,3.271,0.65,4.327,99.74332,-1.354,-0.124,10.25,0,109.4,13.64,-0.61,138.5
"2010-01-09 01:29:30",1575817,8.55,176,4.189,0.651,4.365,99.74559,-1.348,-0.116,10.19,0,109.4,13.64,-0.60,138.0
"2010-01-09 01:30:00",1575818,8.79,176.8,3.174,0.353,4.263,99.74531,-1.349,-0.105,10.14,0,109.4,13.64,-0.60,138.8
"2010-01-09 01:30:30",1575819,8.83,176.5,3.634,0.536,4.302,99.74361,-1.353,-0.088,10.1,0,109.4,13.64,-0.61,138.5
"2010-01-09 01:31:00",1575820,8.9,176.3,3.702,0.542,4.318,99.74277,-1.355,-0.096,10.04,0,109.4,13.64,-0.61,138.3
"2010-01-09 01:31:30",1575821,8.99,176.4,3.728,0.541,4.432,99.74304,-1.355,-0.109,10.02,0,109.4,13.64,-0.61,138.4
"2010-01-09 01:32:00",1575822,8.96,176.8,3.152,0.508,4.404,99.74417,-1.352,-0.09,10.02,0,109.4,13.64,-0.60,138.8
"2010-01-09 01:32:30",1575823,8.8,176.3,3.484,0.646,4.295,99.74417,-1.352,-0.104,10.09,0,109.4,13.63,-0.60,138.3
"2010-01-09 01:33:00",1575824,8.85,176.4,3.741,0.555,4.343,99.74559,-1.348,-0.097,10.09,0,109.4,13.63,-0.60,138.4
"2010-01-09 01:33:30",1575825,8.94,176.3,4.139,0.539,4.556,99.74446,-1.351,-0.086,10.07,0,109.4,13.63,-0.60,138.3
"2010-01-09 01:34:00",1575826,8.99,176.5,3.63,0.497,4.456,99.74644,-1.346,-0.073,10.03,0,109.4,13.63,-0.60,138.5
"2010-01-09 01:34:30",1575827,8.86,176.2,3.078,0.666,4.36,99.7439,-1.352,-0.064,10.02,0,109.4,13.63,-0.61,138.2
"2010-01-09 01:35:00",1575828,8.92,175.8,3.68,0.533,4.437,99.74304,-1.355,-0.089,9.98,0,109.4,13.63,-0.61,137.8
"2010-01-09 01:35:30",1575829,8.88,175.8,3.704,0.533,4.494,99.747,-1.344,-0.093,9.98,0,109.4,13.63,-0.60,137.8
"2010-01-09 01:36:00",1575830,8.94,176.6,3.62,0.37,4.525,99.74615,-1.347,-0.072,9.98,0,109.4,13.63,-0.60,138.6
"2010-01-09 01:36:30",1575831,9.01,176.7,4.147,0.544,4.451,99.74672,-1.345,-0.06,9.93,0,109.4,13.63,-0.60,138.7
"2010-01-09 01:37:00",1575832,9.13,177.9,3.758,0.54,4.387,99.747,-1.344,-0.075,9.84,0,109.4,13.63,-0.60,139.9
"2010-01-09 01:37:30",1575833,9.23,179.2,3.238,0.601,4.455,99.74559,-1.348,-0.079,9.8,0,109.4,13.63,-0.60,141.2
"2010-01-09 01:38:00",1575834,9.43,180.4,3.205,0.474,4.373,99.74531,-1.349,-0.068,9.75,0,109.4,13.64,-0.60,142.4
"2010-01-09 01:38:30",1575835,9.37,180.8,3.183,0.617,4.377,99.74814,-1.342,-0.064,9.72,0,109.4,13.64,-0.59,142.8
"2010-01-09 01:39:00",1575836,9.32,181.6,3.268,0.618,4.427,99.74559,-1.348,-0.099,9.7,0,109.4,13.64,-0.60,143.6
"2010-01-09 01:39:30",1575837,9.18,181.7,3.16,0.635,4.617,99.74531,-1.349,-0.085,9.68,0,109.4,13.64,-0.60,143.7
"2010-01-09 01:40:00",1575838,9.13,182,3.02,0.466,4.459,99.74417,-1.352,-0.096,9.67,0,109.4,13.64,-0.60,144.0
"2010-01-09 01:40:30",1575839,8.93,181.6,3.12,0.624,4.444,99.747,-1.345,-0.064,9.66,0,109.4,13.64,-0.60,143.6
"2010-01-09 01:41:00",1575840,8.85,181.6,3.143,0.625,4.444,99.74728,-1.344,-0.086,9.64,0,109.4,13.64,-0.60,143.6
"2010-01-09 01:41:30",1575841,8.8,181,3.227,0.616,4.486,99.74587,-1.347,-0.087,9.64,0,109.4,13.64,-0.60,143.0
"2010-01-09 01:42:00",1575842,8.86,180.5,3.124,0.507,4.433,99.747,-1.345,-0.079,9.66,0,109.4,13.64,-0.60,142.5
"2010-01-09 01:42:30",1575843,8.92,180,3.644,0.509,4.444,99.74899,-1.339,-0.079,9.68,0,109.4,13.64,-0.59,142.0
"2010-01-09 01:43:00",1575844,9,180.2,3.728,0.611,4.306,99.74672,-1.345,-0.091,9.67,0,109.4,13.64,-0.60,142.2
"2010-01-09 01:43:30",1575845,9.21,180.5,3.673,0.389,4.455,99.74983,-1.337,-0.086,9.67,0,109.4,13.64,-0.59,142.5
"2010-01-09 01:44:00",1575846,9.23,182.1,3.209,0.614,4.485,99.7487,-1.34,-0.08,9.68,0,109.4,13.64,-0.59,144.1
"2010-01-09 01:44:30",1575847,9.3,182.3,3.738,0.47,4.5,99.74899,-1.339,-0.089,9.7,0,109.4,13.64,-0.59,144.3
"2010-01-09 01:45:00",1575848,9.39,183.5,3.787,0.493,4.544,99.74785,-1.342,-0.102,9.68,0,109.4,13.64,-0.60,145.5
"2010-01-09 01:45:30",1575849,9.64,185.7,3.806,0.527,4.646,99.74814,-1.342,-0.093,9.7,0,109.4,13.64,-0.59,147.7
"2010-01-09 01:46:00",1575850,9.56,185.7,3.652,0.366,4.449,99.74814,-1.342,-0.087,9.76,0,109.3,13.64,-0.59,147.7
"2010-01-09 01:46:30",1575851,9.44,185.4,3.855,0.557,4.444,99.74757,-1.343,-0.073,9.79,0,109.4,13.64,-0.60,147.4
"2010-01-09 01:47:00",1575852,9.45,186.1,3.755,0.559,4.482,99.74841,-1.341,-0.082,9.82,0,109.4,13.64,-0.59,148.1
"2010-01-09 01:47:30",1575853,9.23,185.9,3.383,0.765,4.289,99.74899,-1.339,-0.098,9.82,0,109.4,13.64,-0.59,147.9